Wind_Speed
55 53 48 39 36 35 32 29 28 21 20 21 20 20 23 24 21 19 16 13 19 18 17 15 15 12 9 10 28 40 36 22 18 21 25 20 35 29 25 21 18 17 16 15
51 50 42 34 33 30 28 27 24 18 18 20 19 21 25 25 22 19 13 13 17 19 19 15 13 14 13 11 13 28 39 36 27 30 19 20 24 25 23 24 22 13 16 17
49 45 36 31 33 31 27 24 25 18 18 21 19 20 23 26 19 19 14 14 17 17 17 15 12 13 13 16 16 17 30 37 25 31 32 26 20 20 18 23 28 28 23 24
43 40 36 35 36 33 24 21 21 22 21 23 19 20 22 23 18 18 15 18 19 17 17 17 13 14 13 18 20 23 24 30 25 27 26 26 33 25 26 25 28 27 26 32
43 41 38 39 37 34 26 23 28 21 22 20 19 23 23 22 19 17 17 20 19 19 16 16 15 14 9 14 18 24 25 25 24 31 31 27 28 32 32 29 29 31 31 27
44 43 42 41 40 37 31 28 27 26 26 18 24 22 22 23 21 20 17 20 17 20 16 13 14 9 11 16 18 21 25 26 22 32 30 28 24 25 27 27 25 27 25 25
43 46 44 42 44 42 37 33 33 33 28 24 30 24 24 23 24 24 22 23 20 17 15 14 12 6 9 18 20 14 21 26 27 36 35 31 30 26 23 24 24 26 28 28
43 44 45 44 46 44 37 36 37 36 30 23 31 26 26 27 25 26 26 27 24 18 13 13 16 5 12 18 21 15 14 15 22 23 34 32 34 27 26 26 28 27 30 27
43 44 45 44 45 43 36 36 39 36 32 26 26 24 26 25 25 25 26 28 25 19 16 19 26 16 15 17 15 4 7 3 6 13 33 34 33 32 27 30 32 32 31 29
43 44 44 43 44 40 35 40 41 35 30 28 28 25 26 29 30 27 25 27 26 23 18 19 32 33 24 18 5 4 9 17 15 6 7 24 35 31 29 27 29 27 28 25
40 40 44 45 44 43 45 43 43 37 32 28 29 29 29 33 31 29 28 27 27 26 19 17 17 32 23 19 12 9 13 10 8 11 12 12 19 26 27 27 28 27 30 28
41 40 39 41 43 47 48 48 46 38 34 31 32 35 34 34 33 30 27 27 29 27 20 17 15 17 12 11 23 19 8 4 8 14 10 7 10 12 19 17 18 23 24 25
41 39 39 38 39 43 47 47 41 40 36 35 37 39 37 35 32 31 29 27 29 26 22 20 19 19 13 9 26 21 15 9 16 21 18 15 12 6 7 8 11 12 16 13
40 39 37 36 39 40 41 38 41 41 39 40 40 39 40 36 33 33 30 26 28 27 27 25 19 22 19 12 13 27 19 16 22 16 16 12 20 19 10 11 10 11 13 13
38 37 40 41 42 41 39 37 38 40 43 43 43 43 40 35 35 32 30 27 28 27 27 27 17 25 22 18 12 15 25 23 25 25 23 21 19 19 17 20 14 10 10 12
40 40 43 46 48 46 45 45 43 43 44 45 45 42 39 38 37 32 31 28 31 30 28 25 21 33 21 23 22 17 16 18 17 21 18 16 18 20 21 22 21 20 18 14
42 43 46 47 50 47 43 47 46 45 46 44 43 41 39 40 38 35 30 30 33 33 29 24 27 34 35 31 27 26 20 19 18 17 19 19 21 20 24 25 25 23 23 20
41 42 44 45 48 42 40 46 49 47 46 45 45 40 39 39 38 34 32 29 33 36 28 25 27 30 31 33 27 29 28 22 18 19 18 26 28 27 28 29 28 27 27 30
42 42 43 41 42 41 41 44 46 45 46 44 41 39 38 39 36 35 34 33 34 34 28 27 28 31 32 31 27 25 29 21 25 24 25 29 31 30 31 33 32 30 33 35
42 39 39 38 39 40 40 41 41 42 43 42 41 38 39 38 36 38 38 35 34 33 27 27 28 36 39 32 27 23 26 19 21 23 29 31 32 31 33 35 36 38 37 33
41 39 36 37 38 38 40 39 40 41 40 41 39 39 38 37 39 42 44 39 33 30 28 26 29 35 35 36 34 27 22 17 12 16 28 30 33 36 36 34 34 36 36 36
38 36 33 35 34 42 40 41 40 41 43 38 35 38 38 40 45 47 47 41 31 34 30 27 31 31 33 37 38 34 26 23 20 17 20 31 33 34 38 37 38 38 39 45
42 39 38 35 33 34 37 38 37 33 33 34 32 33 37 43 47 47 41 35 36 37 35 32 34 28 34 35 40 42 38 33 28 29 29 30 31 29 30 35 37 41 46 48
44 40 39 38 40 39 31 28 28 31 31 31 31 32 33 38 41 43 39 37 35 42 41 35 38 42 36 40 43 44 44 41 36 36 37 36 33 39 41 41 42 45 50 53
50 45 44 39 40 41 37 35 34 34 32 31 29 27 24 34 38 43 42 41 35 37 40 41 36 37 42 42 42 44 45 39 35 36 38 38 39 39 39 38 40 47 51 54
58 51 47 43 40 42 44 39 38 37 35 32 26 21 20 35 38 42 44 45 37 35 39 38 43 39 36 37 42 40 41 46 40 36 35 31 30 34 36 38 42 43 44 43
Wind_Direction
278 276 281 283 274 270 270 267 268 267 259 262 275 286 303 292 285 285 295 312 300 304 313 311 308 303 270 227 224 219 226 222 244 257 248 255 235 250 244 256 241 255 247 234
273 275 278 272 266 266 268 264 256 249 262 252 272 301 311 309 298 293 307 305 300 308 320 313 291 301 295 268 251 232 225 231 252 251 256 251 250 243 247 247 230 233 229 256
271 275 270 261 256 256 263 256 225 242 253 253 260 294 308 316 306 298 303 303 306 317 313 311 305 293 292 285 273 253 235 242 241 253 257 252 249 237 239 234 239 243 251 262
266 267 261 257 253 250 250 245 233 243 253 257 261 275 293 308 311 293 298 303 311 314 311 298 291 282 278 283 275 262 253 244 228 235 247 252 252 250 244 247 244 249 251 263
265 262 254 252 250 245 246 254 237 254 261 259 265 270 294 304 304 287 287 292 306 308 299 290 280 280 286 278 270 263 255 245 221 217 240 240 248 242 240 235 241 251 259 260
260 255 249 249 246 243 246 241 247 262 252 259 257 264 280 296 311 290 270 270 280 287 298 282 267 266 274 286 282 270 248 246 219 215 229 227 229 219 231 243 245 256 250 247
259 254 252 249 248 244 245 238 252 255 245 252 258 263 275 288 297 292 276 278 280 279 289 287 251 277 326 324 319 271 244 237 231 196 220 217 221 214 224 232 235 237 233 242
251 253 252 248 244 248 250 244 245 249 246 250 253 267 274 281 290 298 277 275 280 283 279 265 209 297 340 332 326 314 278 248 231 209 201 210 215 219 221 231 230 235 240 244
248 247 250 248 246 247 243 243 243 253 250 248 255 272 273 273 288 294 273 271 279 275 259 253 217 242 311 315 315 335 311 303 243 210 204 208 215 221 232 235 237 249 248 247
251 247 246 246 247 243 240 242 245 256 252 249 262 262 264 278 288 294 281 274 273 270 256 265 234 250 270 295 257 176 98 98 86 110 165 218 221 220 242 242 240 249 255 258
249 248 246 243 239 238 237 240 248 252 245 253 255 260 269 272 280 288 280 275 270 270 260 260 255 250 267 265 214 179 134 108 32 261 176 194 192 214 223 234 238 240 250 255
250 248 247 240 237 235 239 245 248 250 240 248 255 264 271 270 278 282 275 268 266 268 268 253 256 243 227 260 186 176 147 145 192 186 197 249 212 224 222 231 235 241 243 244
249 246 248 241 236 236 237 239 240 240 239 244 255 262 270 269 276 277 269 259 261 265 271 263 262 242 215 246 189 186 187 225 192 185 216 243 248 250 232 235 238 238 235 232
244 241 248 240 230 226 230 235 238 238 238 246 254 261 267 268 277 271 266 259 255 258 263 268 261 233 209 201 190 208 199 197 202 202 204 236 249 254 247 238 230 235 239 256
240 234 241 237 228 222 223 230 230 229 239 246 252 264 264 267 273 267 267 263 257 255 254 258 247 216 200 197 196 214 219 222 205 220 233 238 245 252 247 256 241 239 236 251
237 236 240 237 232 225 225 228 229 229 236 245 256 259 262 268 268 262 261 261 262 259 258 253 237 218 212 224 228 220 216 232 218 220 223 233 234 241 249 249 244 242 248 242
237 238 236 235 231 228 229 233 235 238 247 256 257 264 266 266 263 261 256 258 263 265 259 250 239 229 231 222 231 228 219 231 218 226 237 249 257 253 245 247 250 251 260 264
232 231 232 232 232 233 228 232 236 240 246 252 258 259 258 258 258 257 257 255 267 263 261 250 240 233 231 221 237 236 237 226 224 225 234 237 241 242 255 256 258 254 258 271
228 230 231 232 232 233 233 236 239 242 246 250 254 253 257 258 257 258 259 264 276 273 258 246 240 225 230 224 229 229 234 236 240 233 220 235 243 246 256 263 265 267 277 279
228 232 237 234 232 234 237 239 242 244 248 247 250 255 261 258 260 263 265 274 277 270 252 247 234 226 224 222 225 235 220 221 227 229 224 233 242 249 249 258 267 269 275 282
227 229 233 236 237 239 237 239 241 242 244 250 256 258 258 259 264 267 271 274 270 253 251 246 224 219 224 224 222 212 214 220 221 230 238 239 245 251 258 264 270 276 277 283
231 238 235 231 235 240 239 236 236 240 246 249 255 256 256 258 261 261 264 264 250 236 236 232 217 222 226 219 222 223 214 225 232 231 234 246 250 264 267 270 277 280 280 284
233 236 240 244 238 233 230 228 233 237 243 251 256 265 268 269 264 256 239 244 240 229 225 226 221 235 228 224 225 227 219 216 238 240 251 246 251 259 262 277 279 279 282 285
228 231 234 240 234 234 230 231 229 235 241 250 261 270 279 267 248 228 232 237 231 231 225 221 227 235 231 226 226 228 229 229 238 245 255 259 261 262 275 275 273 274 270 273
226 230 231 231 232 230 234 233 229 234 239 250 263 271 272 244 233 229 234 238 239 236 233 226 220 226 232 231 232 233 233 242 251 249 254 256 259 267 272 275 273 272 271 274
228 230 233 230 231 227 231 224 228 234 236 245 252 257 260 240 235 235 241 243 245 235 234 236 227 226 227 228 234 241 244 246 253 254 258 260 266 268 271 272 273 274 270 270
Height
10920 10919 10924 10928 10926 10925 10927 10926 10926 10926 10925 10925 10925 10925 10922 10920 10920 10919 10922 10920 10917 10915 10915 10913 10911 10911 10911 10913 10913 10914 10912 10916 10917 10921 10923 10925 10930 10932 10935 10939 10940 10940 10941 10941
10910 10913 10918 10919 10917 10918 10920 10921 10920 10921 10922 10922 10921 10920 10917 10915 10915 10915 10916 10916 10913 10912 10911 10910 10908 10906 10906 10907 10907 10908 10910 10911 10912 10915 10919 10922 10924 10929 10931 10932 10934 10936 10936 10937
10901 10908 10912 10912 10908 10910 10914 10915 10915 10916 10917 10918 10919 10917 10914 10912 10912 10912 10911 10911 10910 10910 10907 10907 10905 10903 10901 10901 10901 10902 10904 10903 10905 10907 10911 10916 10919 10920 10925 10927 10929 10931 10933 10933
10894 10898 10902 10903 10900 10903 10910 10910 10911 10913 10913 10915 10914 10914 10912 10912 10910 10909 10907 10905 10906 10906 10904 10903 10901 10900 10898 10897 10895 10895 10897 10898 10900 10902 10904 10908 10913 10916 10917 10922 10925 10927 10928 10928
10885 10887 10892 10893 10894 10896 10902 10906 10906 10908 10908 10910 10912 10909 10909 10908 10906 10905 10904 10902 10904 10902 10901 10899 10896 10896 10897 10894 10892 10890 10890 10892 10894 10894 10898 10901 10905 10910 10913 10915 10919 10921 10922 10923
10872 10874 10879 10884 10885 10887 10895 10899 10901 10901 10902 10905 10906 10905 10905 10904 10903 10900 10901 10900 10901 10899 10898 10896 10893 10893 10892 10890 10887 10884 10884 10885 10887 10887 10890 10894 10897 10901 10906 10910 10913 10914 10915 10917
10859 10861 10868 10873 10875 10878 10885 10890 10893 10893 10895 10899 10899 10900 10900 10900 10898 10895 10896 10894 10894 10894 10894 10893 10891 10891 10888 10886 10883 10879 10878 10877 10878 10883 10883 10887 10892 10896 10900 10903 10906 10907 10909 10911
10848 10850 10856 10861 10864 10869 10877 10882 10884 10885 10888 10891 10892 10893 10894 10894 10893 10891 10890 10888 10889 10890 10891 10889 10888 10886 10883 10882 10878 10876 10873 10872 10873 10877 10881 10884 10890 10893 10896 10899 10901 10904 10905 10906
10837 10840 10844 10849 10855 10861 10868 10872 10874 10877 10881 10884 10887 10887 10886 10888 10887 10886 10885 10884 10885 10886 10883 10882 10883 10881 10881 10881 10878 10874 10872 10870 10873 10875 10879 10881 10884 10889 10892 10895 10898 10900 10901 10902
10827 10831 10835 10841 10846 10853 10858 10862 10866 10870 10874 10876 10879 10879 10879 10881 10879 10881 10881 10879 10879 10877 10874 10876 10878 10877 10877 10877 10875 10874 10872 10871 10873 10876 10878 10879 10879 10886 10888 10890 10892 10895 10897 10897
10816 10820 10825 10830 10836 10843 10849 10853 10857 10863 10865 10867 10869 10871 10872 10873 10873 10875 10872 10872 10870 10867 10870 10870 10870 10872 10874 10872 10872 10874 10874 10872 10875 10876 10876 10878 10879 10881 10883 10886 10888 10889 10891 10891
10806 10810 10814 10819 10826 10832 10838 10842 10849 10853 10856 10858 10861 10862 10864 10866 10866 10865 10866 10865 10863 10863 10864 10867 10869 10871 10871 10869 10870 10872 10874 10873 10873 10875 10876 10877 10878 10879 10879 10880 10880 10882 10884 10885
10796 10802 10803 10810 10817 10822 10826 10832 10839 10843 10847 10849 10852 10853 10854 10855 10857 10856 10858 10858 10858 10859 10860 10862 10865 10868 10871 10867 10867 10867 10869 10872 10871 10870 10871 10873 10875 10875 10874 10875 10876 10878 10880 10881
10788 10793 10796 10801 10803 10809 10815 10821 10828 10834 10837 10839 10842 10843 10844 10845 10847 10848 10850 10852 10853 10855 10856 10857 10860 10861 10864 10864 10864 10865 10866 10867 10869 10868 10867 10870 10872 10873 10872 10872 10871 10873 10874 10876
10780 10785 10786 10789 10794 10801 10807 10814 10819 10824 10827 10829 10831 10833 10833 10836 10840 10841 10842 10844 10846 10850 10851 10851 10852 10853 10857 10859 10860 10860 10861 10864 10864 10865 10868 10868 10869 10869 10870 10870 10869 10868 10868 10869
10770 10776 10776 10778 10783 10792 10798 10803 10808 10813 10816 10819 10822 10823 10823 10827 10830 10833 10835 10837 10838 10841 10843 10845 10846 10847 10850 10854 10855 10854 10857 10859 10859 10860 10861 10861 10860 10860 10864 10863 10863 10864 10864 10863
10760 10764 10766 10769 10773 10783 10791 10797 10800 10805 10808 10811 10812 10814 10817 10819 10822 10825 10830 10832 10831 10832 10835 10839 10839 10841 10844 10847 10849 10852 10855 10854 10852 10854 10855 10855 10854 10853 10854 10855 10857 10858 10859 10859
10750 10753 10755 10761 10765 10777 10786 10786 10789 10796 10799 10800 10802 10805 10807 10811 10814 10818 10822 10824 10823 10822 10827 10830 10831 10835 10837 10840 10842 10846 10848 10848 10848 10848 10850 10848 10848 10848 10849 10849 10852 10853 10854 10854
10741 10744 10748 10754 10760 10769 10774 10777 10782 10786 10788 10791 10793 10796 10799 10801 10806 10809 10811 10813 10812 10813 10817 10820 10822 10823 10828 10833 10836 10838 10839 10842 10842 10842 10842 10842 10841 10842 10841 10841 10843 10845 10847 10846
10732 10737 10742 10749 10755 10760 10765 10769 10774 10776 10779 10781 10782 10789 10791 10794 10797 10798 10801 10804 10803 10803 10807 10810 10812 10814 10818 10823 10827 10831 10832 10835 10835 10835 10836 10836 10836 10836 10836 10835 10836 10837 10839 10839
10724 10729 10735 10741 10746 10751 10755 10759 10763 10766 10769 10770 10777 10780 10783 10786 10788 10789 10790 10792 10794 10794 10796 10801 10802 10804 10808 10813 10817 10821 10823 10825 10826 10827 10829 10830 10831 10831 10830 10830 10828 10826 10825 10826
10717 10722 10726 10731 10736 10740 10745 10749 10753 10757 10759 10764 10769 10772 10774 10776 10776 10776 10778 10781 10784 10785 10788 10793 10794 10796 10799 10803 10807 10812 10815 10816 10817 10818 10819 10822 10822 10823 10823 10822 10821 10817 10815 10814
10708 10714 10718 10722 10726 10730 10733 10739 10744 10749 10752 10756 10760 10763 10763 10762 10761 10762 10766 10770 10774 10778 10783 10786 10789 10791 10793 10796 10797 10802 10806 10808 10810 10809 10810 10812 10813 10813 10813 10813 10812 10808 10806 10804
10700 10705 10709 10711 10716 10721 10726 10730 10734 10740 10744 10748 10751 10752 10751 10748 10748 10750 10755 10760 10765 10769 10774 10776 10779 10782 10786 10788 10791 10793 10796 10799 10802 10802 10802 10802 10803 10803 10802 10801 10800 10799 10796 10794
10690 10695 10699 10702 10705 10712 10716 10721 10725 10730 10736 10740 10742 10741 10739 10740 10741 10743 10747 10751 10755 10759 10764 10768 10770 10772 10775 10778 10781 10782 10786 10787 10789 10790 10790 10790 10791 10792 10791 10791 10788 10787 10787 10785
10677 10683 10688 10692 10697 10703 10708 10714 10717 10722 10728 10730 10731 10730 10731 10732 10733 10737 10740 10742 10747 10750 10754 10757 10759 10763 10766 10768 10772 10774 10776 10778 10778 10778 10778 10778 10779 10779 10779 10779 10778 10776 10774 10772